| time (UTC) | temp C | wind direction | speed KPH | gust KPH | rain 1hr cm | rain 24hr cm | rain mn cm | humidity % | barometer mb |
| 20260904175542 | 33 | 192 | 1.6 | 1.6 | 0.00 | 0.08 | 0.00 | 48 | 1010.4 |
| 20260904174528 | 33 | 184 | 1.6 | 1.6 | 0.00 | 0.08 | 0.00 | 49 | 1010.6 |
| 20260904173521 | 33 | 351 | 1.6 | 1.6 | 0.00 | 0.08 | 0.00 | 50 | 1010.7 |
| 20260904172529 | 32 | 211 | 3.2 | 3.2 | 0.00 | 0.08 | 0.00 | 51 | 1010.8 |
| 20260904171535 | 32 | 133 | 3.2 | 3.2 | 0.00 | 0.08 | 0.00 | 50 | 1010.8 |
| 20260904170532 | 32 | 222 | 3.2 | 3.2 | 0.00 | 0.08 | 0.00 | 51 | 1010.9 |
| 20260904165522 | 32 | 190 | 3.2 | 3.2 | 0.00 | 0.08 | 0.00 | 52 | 1010.8 |
| 20260904164528 | 31 | 178 | 3.2 | 3.2 | 0.00 | 0.08 | 0.00 | 52 | 1010.8 |
| 20260904163544 | 31 | 167 | 3.2 | 3.2 | 0.00 | 0.08 | 0.00 | 52 | 1010.7 |
| 20260904162525 | 31 | 223 | 3.2 | 3.2 | 0.00 | 0.08 | 0.00 | 53 | 1010.6 |
| 20260904161522 | 31 | 195 | 3.2 | 3.2 | 0.00 | 0.08 | 0.00 | 53 | 1010.6 |
| 20260904160541 | 30 | 115 | 3.2 | 3.2 | 0.00 | 0.08 | 0.00 | 53 | 1010.6 |
| 20260904155534 | 30 | 236 | 3.2 | 3.2 | 0.00 | 0.08 | 0.00 | 53 | 1010.6 |
| 20260904154520 | 30 | 149 | 3.2 | 3.2 | 0.00 | 0.08 | 0.00 | 54 | 1010.5 |
| 20260904153526 | 30 | 177 | 3.2 | 3.2 | 0.00 | 0.08 | 0.00 | 54 | 1010.5 |
| 20260904152532 | 30 | 157 | 1.6 | 3.2 | 0.00 | 0.08 | 0.00 | 55 | 1010.5 |
| 20260904151539 | 29 | 91 | 3.2 | 3.2 | 0.00 | 0.08 | 0.00 | 55 | 1010.4 |
| 20260904150531 | 29 | 191 | 3.2 | 3.2 | 0.00 | 0.08 | 0.00 | 55 | 1010.4 |
| 20260904145547 | 29 | 169 | 3.2 | 3.2 | 0.00 | 0.08 | 0.00 | 55 | 1010.4 |
| 20260904144524 | 28 | 183 | 3.2 | 3.2 | 0.00 | 0.08 | 0.00 | 55 | 1010.4 |
| 20260904143529 | 28 | 191 | 1.6 | 3.2 | 0.00 | 0.08 | 0.00 | 56 | |
| 20260904142531 | 28 | 149 | 1.6 | 1.6 | 0.00 | 0.08 | 0.00 | 56 | |
| 20260904141527 | 27 | 210 | 1.6 | 1.6 | 0.00 | 0.08 | 0.00 | 56 | 1010.2 |
| 20260904140539 | 27 | 199 | 0.0 | 1.6 | 0.00 | 0.08 | 0.00 | 56 | 1010.2 |
| 20260904135521 | 27 | 154 | 0.0 | 1.6 | 0.00 | 0.08 | 0.00 | 56 | 1010.0 |
| 20260904134526 | 27 | 139 | 1.6 | 1.6 | 0.00 | 0.08 | 0.00 | 56 | 1009.9 |
| 20260904133533 | 27 | 193 | 0.0 | 1.6 | 0.00 | 0.08 | 0.00 | 56 | 1009.8 |
| 20260904132524 | 27 | 189 | 0.0 | 1.6 | 0.00 | 0.08 | 0.00 | 56 | 1009.7 |
| 20260904131521 | 27 | 209 | 0.0 | 1.6 | 0.00 | 0.08 | 0.00 | 56 | 1009.5 |
| 20260904130548 | 27 | 208 | 0.0 | 0.0 | 0.00 | 0.08 | 0.00 | 56 | 1009.3 |
| 20260904125526 | 27 | 166 | 0.0 | 1.6 | 0.00 | 0.08 | 0.00 | 56 | 1009.1 |
| 20260904124523 | 27 | 208 | 1.6 | 1.6 | 0.00 | 0.08 | 0.00 | 57 | 1009.0 |
| 20260904123536 | 27 | 191 | 1.6 | 1.6 | 0.00 | 0.08 | 0.00 | 56 | 1008.8 |
| 20260904122540 | 27 | 187 | 1.6 | 1.6 | 0.00 | 0.08 | 0.00 | 56 | 1008.7 |
| 20260904121547 | 27 | 183 | 1.6 | 1.6 | 0.00 | 0.08 | 0.00 | 56 | 1008.7 |
| 20260904120601 | 27 | 220 | 1.6 | 1.6 | 0.00 | 0.08 | 0.00 | 56 | 1008.7 |
| 20260904115526 | 27 | 105 | 1.6 | 1.6 | 0.00 | 0.08 | 0.00 | 56 | 1008.7 |
| 20260904114532 | 28 | 191 | 1.6 | 1.6 | 0.00 | 0.08 | 0.00 | 56 | 1008.6 |
| 20260904113534 | 28 | 220 | 1.6 | 1.6 | 0.00 | 0.08 | 0.00 | 56 | 1008.6 |
| 20260904112534 | 27 | 181 | 1.6 | 1.6 | 0.00 | 0.08 | 0.00 | 56 | 1008.5 |
| 20260904111525 | 27 | 184 | 3.2 | 3.2 | 0.00 | 0.08 | 0.00 | 56 | 1008.6 |
| 20260904110524 | 28 | 204 | 1.6 | 3.2 | 0.00 | 0.08 | 0.00 | 56 | 1008.6 |
| 20260904105550 | 28 | 182 | 3.2 | 3.2 | 0.00 | 0.08 | 0.00 | 56 | 1008.5 |
| 20260904104530 | 28 | 176 | 1.6 | 1.6 | 0.00 | 0.08 | 0.00 | 56 | 1008.5 |
| 20260904103543 | 28 | 181 | 1.6 | 1.6 | 0.00 | 0.08 | 0.00 | 56 | 1008.6 |
| 20260904102521 | 28 | 128 | 1.6 | 1.6 | 0.00 | 0.08 | 0.00 | 56 | 1008.6 |
| 20260904101525 | 28 | 178 | 1.6 | 1.6 | 0.00 | 0.08 | 0.00 | 56 | 1008.5 |
| 20260904100526 | 28 | 192 | 1.6 | 3.2 | 0.00 | 0.08 | 0.00 | 56 | 1008.4 |
| 20260904095548 | 28 | 177 | 3.2 | 3.2 | 0.00 | 0.08 | 0.00 | 56 | 1008.4 |
| 20260904094531 | 28 | 174 | 3.2 | 3.2 | 0.00 | 0.08 | 0.00 | 56 | 1008.2 |
| 20260904093529 | 28 | 191 | 3.2 | 3.2 | 0.00 | 0.08 | 0.00 | 56 | 1008.3 |
| 20260904092547 | 28 | 140 | 3.2 | 3.2 | 0.00 | 0.08 | 0.00 | 56 | 1008.2 |
| 20260904091525 | 28 | 143 | 3.2 | 3.2 | 0.00 | 0.08 | 0.00 | 56 | 1008.2 |
| 20260904090524 | 28 | 157 | 1.6 | 3.2 | 0.00 | 0.08 | 0.00 | 56 | 1008.3 |
| 20260904085520 | 28 | 198 | 1.6 | 1.6 | 0.00 | 0.08 | 0.00 | 56 | 1008.3 |
| 20260904084603 | 28 | 193 | 1.6 | 1.6 | 0.00 | 0.08 | 0.00 | 56 | 1008.3 |
| 20260904083530 | 28 | 162 | 1.6 | 1.6 | 0.00 | 0.08 | 0.00 | 56 | 1008.3 |
| 20260904082521 | 28 | 164 | 1.6 | 1.6 | 0.00 | 0.08 | 0.00 | 56 | 1008.4 |
| 20260904081541 | 28 | 64 | 1.6 | 1.6 | 0.00 | 0.08 | 0.00 | 56 | 1008.5 |
| 20260904080535 | 28 | 146 | 1.6 | 1.6 | 0.00 | 0.08 | 0.00 | 55 | 1008.5 |
| 20260904075539 | 28 | 158 | 1.6 | 1.6 | 0.00 | 0.08 | 0.00 | 55 | 1008.5 |
| 20260904074526 | 28 | 155 | 1.6 | 1.6 | 0.00 | 0.08 | 0.00 | 55 | 1008.5 |
| 20260904073541 | 28 | 155 | 1.6 | 1.6 | 0.00 | 0.08 | 0.00 | 55 | 1008.5 |
| 20260904072525 | 28 | 161 | 1.6 | 1.6 | 0.00 | 0.08 | 0.00 | 55 | 1008.6 |
| 20260904071533 | 28 | 236 | 1.6 | 1.6 | 0.00 | 0.08 | 0.00 | 55 | 1008.6 |
| 20260904070536 | 28 | 177 | 1.6 | 1.6 | 0.00 | 0.08 | 0.00 | 55 | 1008.5 |
| 20260904065544 | 29 | 224 | 1.6 | 3.2 | 0.00 | 0.08 | 0.08 | 54 | 1008.5 |
| 20260904064558 | 29 | 186 | 1.6 | 3.2 | 0.00 | 0.08 | 0.08 | 54 | 1008.5 |
| 20260904063521 | 29 | 171 | 1.6 | 3.2 | 0.00 | 0.08 | 0.08 | 54 | 1008.6 |
| 20260904062529 | 29 | 153 | 1.6 | 1.6 | 0.00 | 0.08 | 0.08 | 54 | 1008.5 |
| 20260904061554 | 29 | 146 | 1.6 | 1.6 | 0.00 | 0.08 | 0.08 | 53 | 1008.5 |
| 20260904060521 | 29 | 197 | 3.2 | 3.2 | 0.00 | 0.08 | 0.08 | 53 | 1008.5 |
| 20260904055527 | 29 | 193 | 3.2 | 3.2 | 0.00 | 0.08 | 0.08 | 53 | 1008.4 |
| 20260904054525 | 29 | 213 | 1.6 | 3.2 | 0.00 | 0.08 | 0.08 | 53 | 1008.3 |
| 20260904053526 | 29 | 196 | 1.6 | 1.6 | 0.00 | 0.08 | 0.08 | 53 | 1008.2 |
| 20260904052521 | 30 | 187 | 1.6 | 3.2 | 0.00 | 0.08 | 0.08 | 53 | 1008.2 |
| 20260904051520 | 30 | 144 | 1.6 | 1.6 | 0.00 | 0.08 | 0.08 | 53 | 1008.3 |
| 20260904050552 | 30 | 234 | 1.6 | 1.6 | 0.00 | 0.08 | 0.08 | 53 | 1008.3 |
| 20260904045549 | 30 | 163 | 1.6 | 1.6 | 0.00 | 0.08 | 0.08 | 53 | 1008.4 |
| 20260904044522 | 30 | 170 | 1.6 | 3.2 | 0.00 | 0.08 | 0.08 | 53 | 1008.4 |
| 20260904043528 | 30 | 192 | 1.6 | 1.6 | 0.00 | 0.08 | 0.08 | 53 | 1008.5 |
| 20260904042534 | 30 | 195 | 3.2 | 3.2 | 0.00 | 0.08 | 0.08 | 53 | 1008.6 |
| 20260904041528 | 30 | 196 | 1.6 | 1.6 | 0.00 | 0.08 | 0.08 | 53 | 1008.6 |
| 20260904040550 | 30 | 202 | 3.2 | 3.2 | 0.00 | 0.08 | 0.08 | 52 | 1008.5 |
| 20260904035548 | 30 | 161 | 3.2 | 3.2 | 0.00 | 0.08 | 0.08 | 52 | 1008.4 |
| 20260904034524 | 30 | 198 | 3.2 | 3.2 | 0.00 | 0.08 | 0.08 | 52 | 1008.2 |
| 20260904033550 | 30 | 232 | 3.2 | 3.2 | 0.00 | 0.08 | 0.08 | 52 | 1008.0 |
| 20260904032525 | 30 | 178 | 3.2 | 4.8 | 0.00 | 0.08 | 0.08 | 52 | 1007.8 |
| 20260904031543 | 30 | 201 | 3.2 | 3.2 | 0.00 | 0.08 | 0.08 | 52 | 1007.7 |
| 20260904030522 | 30 | 169 | 3.2 | 3.2 | 0.00 | 0.08 | 0.08 | 52 | 1007.5 |
| 20260904025543 | 31 | 164 | 1.6 | 3.2 | 0.00 | 0.08 | 0.08 | 51 | 1007.3 |
| 20260904024528 | 31 | 219 | 3.2 | 3.2 | 0.00 | 0.08 | 0.08 | 51 | |
| 20260904023544 | 31 | 348 | 1.6 | 3.2 | 0.00 | 0.08 | 0.08 | 51 | |
| 20260904022549 | 31 | 194 | 1.6 | 3.2 | 0.00 | 0.08 | 0.08 | 51 | |
| 20260904021527 | 31 | 155 | 1.6 | 1.6 | 0.00 | 0.08 | 0.08 | 50 | |
| 20260904020524 | 31 | 161 | 1.6 | 1.6 | 0.00 | 0.08 | 0.08 | 50 | 1007.0 |
| 20260904015546 | 31 | 242 | 1.6 | 1.6 | 0.00 | 0.08 | 0.08 | 49 | 1006.8 |
| 20260904014541 | 32 | 147 | 1.6 | 3.2 | 0.00 | 0.08 | 0.08 | 49 | 1006.6 |
| 20260904013537 | 32 | 159 | 1.6 | 1.6 | 0.00 | 0.08 | 0.08 | 50 | 1006.5 |
| 20260904012543 | 32 | 189 | 1.6 | 1.6 | 0.08 | 0.08 | 0.08 | 52 | 1006.5 |
| 20260904011524 | 32 | 192 | 1.6 | 1.6 | 0.08 | 0.08 | 0.08 | 52 | 1006.3 |
| 20260904010522 | 32 | 159 | 1.6 | 1.6 | 0.08 | 0.08 | 0.08 | 52 | 1006.3 |
| 20260904005528 | 32 | 205 | 0.0 | 1.6 | 0.08 | 0.08 | 0.08 | 52 | 1006.4 |
| 20260904004531 | 32 | 0.0 | 0.0 | 0.08 | 0.08 | 0.08 | 52 | 1006.4 | |
| 20260904003540 | 32 | 0.0 | 0.0 | 0.08 | 0.08 | 0.08 | 53 | 1006.5 | |
| 20260904002521 | 33 | 17 | 0.0 | 0.0 | 0.00 | 0.00 | 0.00 | 52 | 1006.3 |
| 20260904001559 | 33 | 180 | 1.6 | 1.6 | 0.00 | 0.00 | 0.00 | 49 | 1006.4 |
| 20260904000546 | 33 | 181 | 1.6 | 1.6 | 0.00 | 0.00 | 0.00 | 46 | 1006.3 |
| 20260903235526 | 34 | 154 | 3.2 | 3.2 | 0.00 | 0.00 | 0.00 | 44 | 1006.2 |
| 20260903234542 | 35 | 148 | 1.6 | 1.6 | 0.00 | 0.00 | 0.00 | 40 | 1006.4 |
| 20260903233538 | 35 | 237 | 1.6 | 1.6 | 0.00 | 0.00 | 0.00 | 40 | 1006.3 |
| 20260903232536 | 35 | 293 | 1.6 | 1.6 | 0.00 | 0.00 | 0.00 | 39 | 1006.4 |
| 20260903231523 | 36 | 226 | 1.6 | 3.2 | 0.00 | 0.00 | 0.00 | 40 | 1006.4 |
| 20260903230524 | 36 | 301 | 1.6 | 1.6 | 0.00 | 0.00 | 0.00 | 41 | 1006.3 |
| 20260903225550 | 36 | 280 | 1.6 | 1.6 | 0.00 | 0.00 | 0.00 | 40 | 1006.5 |
| 20260903224527 | 36 | 271 | 1.6 | 1.6 | 0.00 | 0.00 | 0.00 | 39 | 1006.5 |
| 20260903223547 | 36 | 244 | 1.6 | 1.6 | 0.00 | 0.00 | 0.00 | 40 | 1006.5 |
| 20260903222539 | 36 | 311 | 1.6 | 1.6 | 0.00 | 0.00 | 0.00 | 40 | 1006.6 |
| 20260903221522 | 36 | 305 | 1.6 | 1.6 | 0.00 | 0.00 | 0.00 | 40 | 1006.8 |
| 20260903220520 | 35 | 290 | 0.0 | 0.0 | 0.00 | 0.00 | 0.00 | 39 | 1006.9 |
| 20260903215557 | 36 | 127 | 1.6 | 1.6 | 0.00 | 0.00 | 0.00 | 39 | 1007.0 |
| 20260903214527 | 36 | 299 | 1.6 | 1.6 | 0.00 | 0.00 | 0.00 | 40 | 1007.1 |
| 20260903213541 | 36 | 242 | 3.2 | 3.2 | 0.00 | 0.00 | 0.00 | 40 | 1007.2 |
| 20260903212553 | 36 | 255 | 1.6 | 3.2 | 0.00 | 0.00 | 0.00 | 40 | 1007.3 |
| 20260903211528 | 36 | 14 | 1.6 | 1.6 | 0.00 | 0.00 | 0.00 | 41 | 1007.3 |
| 20260903210533 | 36 | 285 | 1.6 | 1.6 | 0.00 | 0.00 | 0.00 | 41 | 1007.5 |
| 20260903205523 | 35 | 339 | 3.2 | 3.2 | 0.00 | 0.00 | 0.00 | 41 | 1007.6 |
| 20260903204538 | 35 | 355 | 1.6 | 3.2 | 0.00 | 0.00 | 0.00 | 41 | 1007.8 |
| 20260903203520 | 35 | 335 | 1.6 | 1.6 | 0.00 | 0.00 | 0.00 | 41 | 1007.9 |
| 20260903202526 | 35 | 340 | 1.6 | 1.6 | 0.00 | 0.00 | 0.00 | 41 | 1008.1 |
| 20260903201551 | 35 | 301 | 1.6 | 1.6 | 0.00 | 0.00 | 0.00 | 42 | 1008.3 |
| 20260903200520 | 35 | 28 | 1.6 | 1.6 | 0.00 | 0.00 | 0.00 | 42 | 1008.4 |
| 20260903195519 | 35 | 206 | 1.6 | 1.6 | 0.00 | 0.00 | 0.00 | 41 | 1008.6 |
| 20260903194535 | 35 | 227 | 1.6 | 1.6 | 0.00 | 0.00 | 0.00 | 42 | 1008.7 |
| 20260903193523 | 35 | 278 | 0.0 | 1.6 | 0.00 | 0.00 | 0.00 | 43 | 1008.9 |
| 20260903192531 | 34 | 15 | 1.6 | 3.2 | 0.00 | 0.00 | 0.00 | 43 | 1009.0 |
| 20260903191548 | 35 | 237 | 1.6 | 1.6 | 0.00 | 0.00 | 0.00 | 43 | 1009.2 |
| 20260903190526 | 35 | 285 | 1.6 | 3.2 | 0.00 | 0.00 | 0.00 | 43 | 1009.4 |
| 20260903185545 | 35 | 234 | 1.6 | 1.6 | 0.00 | 0.00 | 0.00 | 44 | 1009.6 |
| 20260903184520 | 34 | 241 | 3.2 | 3.2 | 0.00 | 0.00 | 0.00 | 45 | 1009.8 |
| 20260903183521 | 33 | 238 | 1.6 | 3.2 | 0.00 | 0.00 | 0.00 | 46 | 1009.9 |
| 20260903182552 | 33 | 266 | 1.6 | 1.6 | 0.00 | 0.00 | 0.00 | 46 | 1010.1 |
| 20260903181528 | 33 | 214 | 1.6 | 1.6 | 0.00 | 0.00 | 0.00 | 47 | 1010.3 |
| 20260903180531 | 32 | 218 | 1.6 | 1.6 | 0.00 | 0.00 | 0.00 | 49 | 1010.5 |